Home Latest Filings Latest Buys Latest Sells Institutions Derivatives Hot Buys Data Screener Email Alerts Insider Charts
TPL - As of  04/22/19, 12:17:09 PM:   46 Insider Transactions.

Sector: Financial    Industry: Real Estate Development
Prev Close:$169.99  Avg Vol(3m): 9,092  P/E: 39.40  EPS: 4.31

Email this page to a friend.    Institutional Transactions for TPL

                Buy: Blue    Sell: Red
Non-meaningful transactions (gifts, grants, etc.) are automatically filtered out for quicker actions.
Buy(P) /
Sell(S)
P/S date Filed Date Company Symbol Insider Relationship Share Amt. Unit Price Total Proceeds Shares Owned Return(1m) Details
P 2019-04-18 2019-04-22 11:00:19.0 TEXAS PACIFIC LAND TRUST TPL KINETICS ASSET MANAGEMENT LLC various various various 10% owner 42 $899.92 $37,796.60 203,872 view
P 2019-04-17 2019-04-18 11:40:32.0 TEXAS PACIFIC LAND TRUST TPL KINETICS ASSET MANAGEMENT LLC various various various 10% owner 42 $887.23 $37,263.70 203,830 view
P 2019-04-16 2019-04-17 10:59:36.0 TEXAS PACIFIC LAND TRUST TPL KINETICS ASSET MANAGEMENT LLC various various various 10% owner 42 $898.49 $37,736.60 203,788 view
P 2019-04-15 2019-04-16 11:41:36.0 TEXAS PACIFIC LAND TRUST TPL KINETICS ASSET MANAGEMENT LLC various various various 10% owner 42 $903.05 $37,928.10 203,746 view
P 2019-04-12 2019-04-15 11:49:13.0 TEXAS PACIFIC LAND TRUST TPL KINETICS ASSET MANAGEMENT LLC various various various 10% owner 42 $903.52 $37,947.80 203,704 view
P 2019-04-11 2019-04-12 11:05:08.0 TEXAS PACIFIC LAND TRUST TPL KINETICS ASSET MANAGEMENT LLC various various various 10% owner 42 $911.07 $38,264.90 203,662 view
P 2019-04-10 2019-04-11 11:28:51.0 TEXAS PACIFIC LAND TRUST TPL KINETICS ASSET MANAGEMENT LLC various various various 10% owner 42 $874.06 $36,710.50 203,620 view
P 2019-04-09 2019-04-10 11:35:56.0 TEXAS PACIFIC LAND TRUST TPL KINETICS ASSET MANAGEMENT LLC various various 10% owner director 36 $821.55 $29,575.80 203,578 view
P 2019-04-08 2019-04-09 11:55:06.0 TEXAS PACIFIC LAND TRUST TPL KINETICS ASSET MANAGEMENT LLC various various various 10% owner 7 $814.50 $5,701.50 203,542 view
P 2019-04-05 2019-04-08 11:04:02.0 TEXAS PACIFIC LAND TRUST TPL KINETICS ASSET MANAGEMENT LLC various various various 10% owner 42 $792.27 $33,275.30 203,535 view
P 2019-04-03 2019-04-04 11:42:38.0 TEXAS PACIFIC LAND TRUST TPL KINETICS ASSET MANAGEMENT LLC various various various 10% owner 42 $797.88 $33,511.00 201,977 view
P 2019-04-02 2019-04-03 11:50:38.0 TEXAS PACIFIC LAND TRUST TPL KINETICS ASSET MANAGEMENT LLC various various various 10% owner 42 $801.16 $33,648.70 201,935 view
P 2019-04-01 2019-04-02 11:32:10.0 TEXAS PACIFIC LAND TRUST TPL KINETICS ASSET MANAGEMENT LLC various various various 10% owner 42 $784.30 $32,940.60 201,893 view
P 2019-03-29 2019-04-01 11:49:03.0 TEXAS PACIFIC LAND TRUST TPL KINETICS ASSET MANAGEMENT LLC various various various 10% owner 42 $773.48 $32,486.20 201,851 view
P 2019-03-28 2019-03-29 11:56:39.0 TEXAS PACIFIC LAND TRUST TPL KINETICS ASSET MANAGEMENT LLC various various various 10% owner 7 $774.83 $5,423.81 201,809 view
P 2019-03-27 2019-03-28 11:58:47.0 TEXAS PACIFIC LAND TRUST TPL KINETICS ASSET MANAGEMENT LLC various various various 10% owner 42 $774.38 $32,524.00 201,802 view
P 2019-03-26 2019-03-27 11:34:02.0 TEXAS PACIFIC LAND TRUST TPL KINETICS ASSET MANAGEMENT LLC various various various 10% owner 42 $764.28 $32,099.80 201,760 view
P 2019-03-25 2019-03-26 13:24:27.0 TEXAS PACIFIC LAND TRUST TPL KINETICS ASSET MANAGEMENT LLC various various various 10% owner 42 $725.36 $30,465.10 201,718 view
P 2019-03-22 2019-03-25 11:57:40.0 TEXAS PACIFIC LAND TRUST TPL KINETICS ASSET MANAGEMENT LLC various various various 10% owner 42 $751.10 $31,546.20 201,676 view
P 2019-03-21 2019-03-22 12:32:07.0 TEXAS PACIFIC LAND TRUST TPL KINETICS ASSET MANAGEMENT LLC various various various 10% owner 42 $767.89 $32,251.40 201,634 view
P 2019-03-20 2019-03-21 16:34:03.0 TEXAS PACIFIC LAND TRUST TPL KINETICS ASSET MANAGEMENT LLC various various various 10% owner 42 $765.98 $32,171.20 201,592 view
P 2019-03-19 2019-03-20 12:29:26.0 TEXAS PACIFIC LAND TRUST TPL KINETICS ASSET MANAGEMENT LLC various various various 10% owner 42 $760.69 $31,949.00 201,550 view
P 2019-03-18 2019-03-19 12:37:48.0 TEXAS PACIFIC LAND TRUST TPL KINETICS ASSET MANAGEMENT LLC various various various 10% owner 42 $741.16 $31,128.60 201,508 view
P 2019-03-15 2019-03-18 16:42:01.0 TEXAS PACIFIC LAND TRUST TPL KINETICS ASSET MANAGEMENT LLC various various various 10% owner 42 $748.14 $31,421.90 201,466 view
P 2018-12-26 2018-12-27 16:11:29.0 TEXAS PACIFIC LAND TRUST TPL Barry David E. other 100 $467.06 $46,705.90 300 view
P 2018-12-04 2018-12-06 16:17:34.0 TEXAS PACIFIC LAND TRUST TPL Packer Robert J CFO 100 $589.00 $58,900.00 200 view
P 2018-12-04 2018-12-06 16:16:25.0 TEXAS PACIFIC LAND TRUST TPL GLOVER TYLER officer (Co-General Agent) 100 $598.00 $59,800.00 100 view
S 2018-11-19 2018-11-21 12:57:42.0 TEXAS PACIFIC LAND TRUST TPL Meyer Maurice III other 500 $607.26 $303,630.00 60,546 view
S 2018-11-15 2018-11-16 16:46:24.0 TEXAS PACIFIC LAND TRUST TPL Meyer Maurice III other 500 $570.00 $285,000.00 61,046 view
S 2018-11-14 2018-11-16 16:46:24.0 TEXAS PACIFIC LAND TRUST TPL Meyer Maurice III other 500 $576.19 $288,095.00 61,546 view
P 2018-10-11 2018-10-12 16:07:09.0 TEXAS PACIFIC LAND TRUST TPL Barry David E. director other 100 $810.00 $81,000.00 200 view
S 2018-10-03 2018-10-04 16:42:53.0 TEXAS PACIFIC LAND TRUST TPL Meyer Maurice III other 109 $874.00 $95,266.00 62,046 view
S 2018-09-26 2018-09-28 16:16:05.0 TEXAS PACIFIC LAND TRUST TPL Meyer Maurice III other 400 $856.00 $342,400.00 62,155 view
S 2018-09-26 2018-09-28 16:16:05.0 TEXAS PACIFIC LAND TRUST TPL Meyer Maurice III other 600 $864.00 $518,400.00 62,555 view
S 2018-09-12 2018-09-14 16:50:21.0 TEXAS PACIFIC LAND TRUST TPL Meyer Maurice III other 500 $835.00 $417,500.00 63,220 view
S 2018-08-27 2018-08-27 16:10:51.0 TEXAS PACIFIC LAND TRUST TPL Meyer Maurice III other 500 $853.00 $426,500.00 63,720 view
S 2018-08-27 2018-08-27 16:10:51.0 TEXAS PACIFIC LAND TRUST TPL Meyer Maurice III other 500 $855.26 $427,632.00 64,220 view
P 2017-03-03 2017-03-06 16:53:38.0 TEXAS PACIFIC LAND TRUST TPL Barry David E. other 100 $292.00 $29,200.00 100 N/A view
P 2017-03-03 2017-03-03 16:24:43.0 TEXAS PACIFIC LAND TRUST TPL Packer Robert J CFO 100 $293.76 $29,376.00 100 N/A view
P 2015-02-03 2015-02-04 10:44:05.0 TEXAS PACIFIC LAND TRUST TPL Norwood James K other 200 $122.72 $24,545.00 1,600 16.28% view
P 2014-12-12 2014-12-15 16:10:45.0 TEXAS PACIFIC LAND TRUST TPL PETERSON DAVID M officer (General Agent) 17 $111.33 $1,892.61 50 3.43% view
P 2014-11-05 2014-11-06 16:14:06.0 TEXAS PACIFIC LAND TRUST TPL PETERSON DAVID M officer (General Agent and CFO) 33 $145.95 $4,816.35 33 -0.73% view
P 2011-12-20 2011-12-22 12:41:24.0 TEXAS PACIFIC LAND TRUST TPL Norwood James K other 100 $41.75 $4,175.00 600 2.20% view
P 2008-10-08 2009-03-04 09:41:06.0 TEXAS PACIFIC LAND TRUST TPL Norwood James K other 300 $26.30 $7,890.00 500 4.94% view
P 2008-10-06 2008-10-08 16:09:32.0 TEXAS PACIFIC LAND TRUST TPL Thomas Roy CEO 500 $33.75 $16,875.00 1,000 -16.53% view
P 2005-10-21 2005-10-25 16:12:03.0 TEXAS PACIFIC LAND TRUST TPL Meyer Maurice III other 100 $119.20 $11,920.00 15,050 25.84% view
* An * after P or S in the Buy/Sell column means the transaction was filed by the insider as open market, but it was marked as private transaction by insidercow's proprietary method
Enter Another Stock Symbol: